[[{"header":{"parameterUnit":"m.s-1","parameterCategory":1,"la1":30.2991,"la2":30.254,"lo1":-89.0895,"lo2":-89.0444,"dy":0.0017,"dx":0.0017,"nx":28,"ny":28,"refTime":"2025-01-03T09:00:00:Z","depth":0,"parameterNumber":2,"parameterNumberName":"U-component_of_WINDS"},"data":[0,0,0,0,0,0,0,0,0,0,0,0,0,0,0,0,0,0,0,0,0,0,0,0,0,0,0,0,0,0,0,0,0,0,0,0,0,0,0,0,0,0,0,0,0,0,0,0,0,0,0,0,0,0,0,0,0,0,-0.6647,-0.6647,0,-0.6638,-0.6638,-0.6638,-0.6598,-0.6597,-0.6596,-0.6596,-0.6588,-0.6589,-0.6589,0,0,0,0,0,0,0,0,0,0,0,0,0,-0.663,-0.663,-0.6647,-0.6647,-0.6647,-0.6638,-0.6638,-0.6638,-0.6599,-0.6597,-0.6596,-0.6595,-0.6588,-0.6589,-0.659,0,0,0,0,0,0,0,0,0,0,0,0,0,-0.6631,-0.663,-0.6647,-0.6626,-0.6624,-0.6638,-0.6638,-0.6638,-0.6599,-0.6597,-0.6596,-0.6595,-0.6588,-0.6589,-0.659,-0.6624,0,0,-0.6593,-0.6593,0,0,0,0,0,0,0,0,-0.6631,-0.6632,-0.6629,-0.6627,-0.6625,-0.6618,-0.6629,-0.6633,-0.6599,-0.6608,-0.6596,-0.6594,-0.6599,-0.6599,-0.6601,-0.6624,-0.6623,-0.6593,-0.6593,-0.6594,-0.6594,0,0,0,0,0,0,0,-0.6631,-0.6632,-0.6644,-0.6629,-0.6627,-0.6617,-0.6616,-0.663,-0.6612,-0.6607,-0.6605,-0.6604,-0.6598,-0.66,-0.66,-0.6623,-0.6593,-0.6594,-0.6594,-0.6595,-0.6674,-0.6675,0,0,0,0,0,0,-0.6634,-0.6632,-0.6644,-0.6643,-0.6625,-0.6619,-0.6617,-0.6622,-0.6612,-0.6609,-0.6605,-0.6602,-0.6599,-0.6599,-0.66,-0.6639,-0.6594,-0.6595,-0.6595,-0.6672,-0.6674,-0.6676,0,0,0,0,0,0,-0.6633,-0.6635,-0.6644,-0.6637,-0.6637,-0.662,-0.6626,-0.6622,-0.6624,-0.661,-0.6607,-0.661,-0.6598,-0.6598,-0.6618,-0.6639,-0.6595,-0.6596,-0.6671,-0.6673,-0.6675,-0.6719,0,0,0,0,0,0,-0.6633,-0.6635,-0.6648,-0.6637,-0.6638,-0.6663,-0.6627,-0.6623,-0.6626,-0.6622,-0.6614,-0.6611,-0.6597,-0.6617,-0.6619,-0.6639,-0.6597,-0.6669,-0.6672,-0.6674,-0.6716,-0.6723,-0.6728,0,0,0,0,0,-0.6633,-0.6661,-0.6649,-0.6651,-0.6653,-0.6664,-0.6664,-0.6646,-0.6628,-0.664,-0.6631,-0.6612,-0.6636,-0.6619,-0.6622,-0.6642,-0.6667,-0.6671,-0.6674,-0.6713,-0.6721,-0.6728,0,0,0,0,0,0,-0.6675,-0.6659,-0.6646,-0.6671,-0.6669,-0.6657,-0.6673,-0.6656,-0.6659,-0.6655,-0.6633,-0.6632,-0.6655,-0.665,-0.6632,-0.6675,-0.6648,-0.6652,-0.6677,-0.6685,-0.6691,-0.6692,-0.6598,0,0,0,0,0,-0.6688,-0.6697,-0.6683,-0.6707,-0.6706,-0.669,-0.6694,-0.668,-0.6677,-0.6676,-0.6668,-0.6666,-0.6674,-0.6679,-0.6685,-0.6715,-0.6712,-0.673,-0.6736,-0.6741,-0.6745,-0.6761,-0.6768,-0.6687,-0.6687,-0.6687,0,0,-0.6714,-0.6706,-0.6713,-0.6715,-0.6712,-0.6723,-0.6689,-0.6702,-0.671,-0.6678,-0.6696,-0.669,-0.6687,-0.6712,-0.6722,-0.6709,-0.6767,-0.6746,-0.675,-0.6751,-0.6765,-0.6773,-0.678,-0.6689,-0.6689,-0.6688,0,0,-0.6766,-0.6761,-0.6781,-0.6778,-0.6773,-0.6761,-0.6766,-0.6756,-0.6751,-0.6769,-0.6745,-0.6754,-0.6767,-0.6765,-0.6766,-0.6817,-0.6799,-0.682,-0.6853,-0.6868,-0.6875,-0.688,-0.6899,-0.6906,-0.6823,-0.6824,-0.6824,0,-0.6799,-0.6813,-0.6793,-0.6807,-0.6809,-0.678,-0.6799,-0.6798,-0.6795,-0.6797,-0.6782,-0.6797,-0.6792,-0.6817,-0.6829,-0.6831,-0.6836,-0.6821,-0.6875,-0.6881,-0.6886,-0.6903,-0.691,-0.6826,-0.6826,-0.6826,-0.6825,0,-0.6854,-0.6865,-0.6881,-0.6879,-0.6882,-0.6899,-0.6881,-0.6887,-0.6873,-0.6863,-0.6882,-0.6875,-0.6879,-0.6884,-0.687,-0.6906,-0.6898,-0.6879,-0.6852,-0.6896,-0.6912,-0.6919,-0.683,-0.6829,-0.6828,-0.6827,0,0,-0.6934,-0.692,-0.6926,-0.6924,-0.6916,-0.6924,-0.694,-0.6943,-0.6949,-0.6948,-0.696,-0.6971,-0.6954,-0.6955,-0.6941,-0.6955,-0.6996,-0.6934,-0.6934,-0.6946,-0.7035,-0.7049,-0.7057,-0.6983,-0.6985,-0.6985,-0.7035,0,-0.6985,-0.701,-0.6991,-0.702,-0.7029,-0.7002,-0.7015,-0.7012,-0.7003,-0.701,-0.7,-0.7009,-0.6985,-0.6985,-0.6997,-0.6988,-0.7013,-0.6984,-0.6995,-0.6996,-0.6998,-0.7065,-0.708,-0.7128,-0.7041,-0.7042,-0.7043,0,-0.7047,-0.7048,-0.7077,-0.7067,-0.707,-0.7083,-0.7084,-0.7091,-0.7086,-0.7079,-0.708,-0.7062,-0.7077,-0.705,-0.707,-0.7051,-0.7054,-0.705,-0.7051,-0.7052,-0.7023,-0.7068,-0.7142,-0.7149,-0.7052,-0.7052,-0.7051,0,-0.7103,-0.7111,-0.713,-0.7129,-0.7118,-0.7127,-0.7123,-0.7117,-0.712,-0.7121,-0.7123,-0.7126,-0.7128,-0.7131,-0.7115,-0.7096,-0.7137,-0.7108,-0.7132,-0.7132,-0.7142,-0.7142,-0.7218,-0.7144,-0.7143,-0.7143,-0.7143,0,-0.7161,-0.718,-0.7155,-0.7166,-0.7187,-0.7165,-0.7187,-0.7179,-0.7174,-0.7184,-0.716,-0.717,-0.7148,-0.7156,-0.7143,-0.7162,-0.7163,-0.7157,-0.7154,-0.716,-0.7161,-0.7162,-0.7159,-0.7145,-0.7145,-0.7144,-0.7144,0,-0.7227,-0.7211,-0.7229,-0.7216,-0.7213,-0.7229,-0.7218,-0.7229,-0.7218,-0.7231,-0.7232,-0.7216,-0.7223,-0.7207,-0.7213,-0.7204,-0.7231,-0.7222,-0.7232,-0.723,-0.7254,-0.7252,-0.7334,-0.7344,-0.7263,-0.7264,-0.7265,0,-0.7266,-0.728,-0.7268,-0.7272,-0.7269,-0.7277,-0.728,-0.7259,-0.7263,-0.7259,-0.7269,-0.7275,-0.7278,-0.7292,-0.7281,-0.7285,-0.7276,-0.7305,-0.7277,-0.7282,-0.7277,-0.7277,-0.7278,-0.7311,-0.7312,-0.7312,-0.7313,0,-0.7336,-0.7327,-0.7332,-0.7333,-0.7337,-0.7337,-0.7336,-0.7341,-0.7319,-0.7325,-0.7332,-0.7335,-0.734,-0.7346,-0.7347,-0.7343,-0.7325,-0.7322,-0.7327,-0.7334,-0.7339,-0.7337,-0.7249,-0.732,-0.732,-0.7319,-0.7319,-0.7318,-0.739,-0.7401,-0.7394,-0.74,-0.7396,-0.7396,-0.7405,-0.7394,-0.74,-0.7402,-0.739,-0.74,-0.7395,-0.7395,-0.7392,-0.74,-0.7387,-0.7395,-0.7398,-0.74,-0.7404,-0.7338,-0.74,-0.74,-0.74,-0.74,-0.7399,0,-0.7459,-0.7453,-0.7459,-0.7457,-0.7462,-0.7443,-0.744,-0.7446,-0.7455,-0.7451,-0.7455,-0.7463,-0.7468,-0.7457,-0.7461,-0.7469,-0.7461,-0.7471,-0.7471,-0.747,-0.7415,-0.741,-0.7478,-0.7478,-0.7478,-0.7478,-0.7478,-0.7478,-0.7496,-0.7513,-0.7504,-0.7519,-0.7513,-0.7522,-0.7522,-0.7522,-0.7519,-0.7529,-0.7533,-0.7525,-0.7519,-0.7522,-0.7526,-0.7522,-0.7525,-0.7538,-0.7532,-0.7481,-0.7474,-0.7466,-0.7462,-0.7539,-0.7539,-0.7586,-0.7587,-0.7587]},{"header":{"parameterUnit":"m.s-1","parameterCategory":1,"la1":30.2991,"la2":30.254,"lo1":-89.0895,"lo2":-89.0444,"dy":0.0017,"dx":0.0017,"nx":28,"ny":28,"refTime":"2025-01-03T09:00:00:Z","depth":0,"parameterNumber":3,"parameterNumberName":"V-component_of_WINDS"},"data":[0,0,0,0,0,0,0,0,0,0,0,0,0,0,0,0,0,0,0,0,0,0,0,0,0,0,0,0,0,0,0,0,0,0,0,0,0,0,0,0,0,0,0,0,0,0,0,0,0,0,0,0,0,0,0,0,0,0,-3.6842,-3.6843,0,-3.6928,-3.6929,-3.693,-3.6943,-3.6942,-3.6941,-3.694,-3.7023,-3.7026,-3.7029,0,0,0,0,0,0,0,0,0,0,0,0,0,-3.6682,-3.6685,-3.6842,-3.6843,-3.6844,-3.6928,-3.6929,-3.6931,-3.6943,-3.6942,-3.6941,-3.694,-3.7022,-3.7026,-3.7029,0,0,0,0,0,0,0,0,0,0,0,0,0,-3.6758,-3.6686,-3.6842,-3.686,-3.6863,-3.6928,-3.693,-3.6931,-3.6943,-3.6942,-3.694,-3.6939,-3.7021,-3.7025,-3.703,-3.7081,0,0,-3.7043,-3.7045,0,0,0,0,0,0,0,0,-3.6754,-3.6764,-3.6856,-3.6859,-3.6862,-3.6924,-3.6904,-3.6981,-3.6943,-3.6912,-3.694,-3.6939,-3.6991,-3.6998,-3.7016,-3.7085,-3.7088,-3.7044,-3.7046,-3.7048,-3.7049,0,0,0,0,0,0,0,-3.6749,-3.676,-3.6876,-3.6858,-3.6861,-3.6863,-3.6872,-3.6918,-3.6957,-3.6915,-3.6916,-3.6926,-3.6992,-3.7012,-3.7018,-3.7089,-3.7044,-3.7047,-3.705,-3.7052,-3.7206,-3.7207,0,0,0,0,0,0,-3.6741,-3.6756,-3.6873,-3.6878,-3.6804,-3.6867,-3.6877,-3.6905,-3.6956,-3.6963,-3.6927,-3.6927,-3.7005,-3.7013,-3.7021,-3.7086,-3.7048,-3.7052,-3.7055,-3.7204,-3.7206,-3.7208,0,0,0,0,0,0,-3.6737,-3.6751,-3.687,-3.6818,-3.6833,-3.6871,-3.6902,-3.6907,-3.6927,-3.6966,-3.6972,-3.6941,-3.7004,-3.7015,-3.7067,-3.7089,-3.7054,-3.7058,-3.7203,-3.7205,-3.7207,-3.7215,0,0,0,0,0,0,-3.6733,-3.675,-3.677,-3.6818,-3.6836,-3.6915,-3.6903,-3.691,-3.6936,-3.6936,-3.698,-3.6987,-3.7004,-3.706,-3.7071,-3.7095,-3.7062,-3.7201,-3.7204,-3.7206,-3.7213,-3.7217,-3.7221,0,0,0,0,0,-3.6727,-3.6767,-3.6771,-3.6785,-3.6863,-3.6916,-3.6926,-3.6947,-3.6937,-3.6958,-3.6983,-3.6985,-3.7085,-3.7065,-3.7078,-3.7103,-3.72,-3.7203,-3.7206,-3.7211,-3.7217,-3.7221,0,0,0,0,0,0,-3.6719,-3.6774,-3.6779,-3.6837,-3.6872,-3.6918,-3.6945,-3.6952,-3.6989,-3.6987,-3.701,-3.702,-3.7071,-3.7092,-3.7069,-3.7156,-3.7141,-3.7147,-3.7141,-3.7146,-3.715,-3.7144,-3.7065,0,0,0,0,0,-3.6724,-3.6765,-3.681,-3.6856,-3.6874,-3.6907,-3.6931,-3.6944,-3.6981,-3.6995,-3.7024,-3.7058,-3.7097,-3.7122,-3.716,-3.7216,-3.7226,-3.7239,-3.7243,-3.7246,-3.7251,-3.7284,-3.7291,-3.7218,-3.7218,-3.7218,0,0,-3.6735,-3.677,-3.6794,-3.6856,-3.6885,-3.6926,-3.6919,-3.6962,-3.6992,-3.7001,-3.7053,-3.7075,-3.7115,-3.7169,-3.7195,-3.7188,-3.7274,-3.725,-3.7252,-3.7256,-3.7288,-3.7295,-3.7301,-3.7221,-3.722,-3.722,0,0,-3.6776,-3.6806,-3.6849,-3.6879,-3.6924,-3.6946,-3.6956,-3.7002,-3.7018,-3.7071,-3.708,-3.7115,-3.7181,-3.721,-3.7233,-3.7287,-3.729,-3.7298,-3.7319,-3.735,-3.7356,-3.7361,-3.7382,-3.7389,-3.7303,-3.7303,-3.7303,0,-3.6783,-3.6847,-3.687,-3.6914,-3.6941,-3.6954,-3.6998,-3.7025,-3.7079,-3.7097,-3.7089,-3.7175,-3.7202,-3.7264,-3.7278,-3.7295,-3.7308,-3.7293,-3.7354,-3.7359,-3.7364,-3.7384,-3.7392,-3.7303,-3.7303,-3.7303,-3.7303,0,-3.6854,-3.6898,-3.6927,-3.6983,-3.7013,-3.7056,-3.7085,-3.7113,-3.7124,-3.7146,-3.72,-3.7233,-3.7279,-3.7294,-3.7304,-3.7358,-3.7353,-3.7349,-3.7335,-3.7372,-3.7391,-3.7398,-3.7305,-3.7304,-3.7304,-3.7304,0,0,-3.6892,-3.6962,-3.6972,-3.6998,-3.705,-3.7083,-3.7127,-3.7174,-3.7198,-3.7235,-3.7273,-3.7329,-3.7327,-3.7353,-3.7366,-3.7394,-3.7436,-3.7386,-3.7388,-3.7396,-3.75,-3.7504,-3.7512,-3.7439,-3.744,-3.7441,-3.7497,0,-3.694,-3.7021,-3.7045,-3.7113,-3.7154,-3.7167,-3.7205,-3.724,-3.7262,-3.7299,-3.7322,-3.7363,-3.7356,-3.7372,-3.74,-3.7425,-3.7457,-3.7421,-3.7473,-3.7475,-3.7465,-3.7522,-3.7526,-3.7577,-3.7504,-3.7506,-3.7507,0,-3.7007,-3.7049,-3.7122,-3.7171,-3.7189,-3.7223,-3.7269,-3.7305,-3.7344,-3.7358,-3.7389,-3.74,-3.7446,-3.7428,-3.7491,-3.7466,-3.7489,-3.7504,-3.7507,-3.7513,-3.7494,-3.7531,-3.7593,-3.7602,-3.7518,-3.7517,-3.7516,0,-3.703,-3.7104,-3.7158,-3.718,-3.7237,-3.7261,-3.7285,-3.7324,-3.7352,-3.7391,-3.741,-3.7453,-3.7477,-3.7509,-3.7532,-3.7517,-3.7593,-3.7577,-3.7606,-3.7606,-3.7622,-3.7621,-3.769,-3.7634,-3.7634,-3.7634,-3.7634,0,-3.7082,-3.7127,-3.717,-3.7203,-3.7253,-3.7279,-3.7327,-3.7352,-3.7387,-3.7424,-3.7437,-3.7471,-3.7498,-3.7536,-3.7553,-3.7603,-3.7613,-3.7626,-3.763,-3.7626,-3.7624,-3.7642,-3.7639,-3.7636,-3.7636,-3.7635,-3.7635,0,-3.7117,-3.7147,-3.7207,-3.7257,-3.7271,-3.7306,-3.7348,-3.738,-3.7403,-3.7451,-3.7463,-3.7498,-3.7544,-3.7569,-3.7625,-3.7637,-3.7694,-3.7695,-3.7681,-3.7683,-3.7711,-3.7709,-3.7795,-3.7808,-3.7742,-3.7742,-3.7743,0,-3.7149,-3.7184,-3.7239,-3.7267,-3.7293,-3.7336,-3.7365,-3.7391,-3.7421,-3.747,-3.7497,-3.7543,-3.7583,-3.7654,-3.7684,-3.7727,-3.7731,-3.7758,-3.7737,-3.7732,-3.7733,-3.7732,-3.7736,-3.7762,-3.7762,-3.7763,-3.7763,0,-3.7204,-3.7218,-3.726,-3.7309,-3.7345,-3.7383,-3.7422,-3.7443,-3.7475,-3.7508,-3.7556,-3.7587,-3.7646,-3.7692,-3.7738,-3.7761,-3.7768,-3.7769,-3.7779,-3.7775,-3.7767,-3.7774,-3.7693,-3.7768,-3.7767,-3.7767,-3.7767,-3.7766,-3.7239,-3.7272,-3.7317,-3.7365,-3.7397,-3.7433,-3.7467,-3.7495,-3.7537,-3.7589,-3.7601,-3.7652,-3.7691,-3.7755,-3.7779,-3.7819,-3.7814,-3.7826,-3.783,-3.7833,-3.7835,-3.7759,-3.7827,-3.7827,-3.7827,-3.7826,-3.7826,0,-3.7296,-3.7326,-3.737,-3.7425,-3.7463,-3.7468,-3.7511,-3.7542,-3.7587,-3.7625,-3.7664,-3.772,-3.7765,-3.7799,-3.7845,-3.787,-3.7875,-3.7882,-3.7881,-3.7886,-3.7836,-3.7825,-3.7878,-3.7878,-3.7878,-3.7878,-3.7878,-3.7878,-3.733,-3.7387,-3.7406,-3.7479,-3.7508,-3.7561,-3.7585,-3.7618,-3.7649,-3.7712,-3.7751,-3.7773,-3.7809,-3.7859,-3.79,-3.7909,-3.7926,-3.7933,-3.7942,-3.7895,-3.789,-3.7884,-3.7874,-3.7936,-3.7936,-3.7989,-3.799,-3.799]}]]